Saginaw, MI

3:56 AM EST on February 14, 2016 (GMT -0500)
Saginaw County-Browne

Weather History for KHYX - November, 2013

Change the Weather History Date:

Monday, November 4, 2013

  Actual Average (KMBS) Record (KMBS)
Temperature  
Mean Temperature 40 °F 43 °F  
Max Temperature 48 °F 51 °F 75 °F (2015)
Min Temperature 32 °F 35 °F 21 °F (2006)
Degree Days  
Heating Degree Days 25    
Month to date heating degree days  
Since 1 July heating degree days  
Cooling Degree Days 0    
Month to date cooling degree days  
Year to date cooling degree days  
Moisture  
Dew Point 28 °F    
Average Humidity 65    
Maximum Humidity 93    
Minimum Humidity 34    
Precipitation  
Precipitation 0.00 in 0.09 in 0.17 in (2004)
Month to date precipitation 0.37  
Year to date precipitation 27.35  
Snow  
Snow 0.00 in - - ()
Month to date snowfall  
Since 1 July snowfall  
Since 1 September snowfall  
Snow Depth -    
Sea Level Pressure  
Sea Level Pressure 30.37 in    
Wind  
Wind Speed 9 mph (SE)    
Max Wind Speed 20 mph    
Max Gust Speed 25 mph    
Visibility 10 miles    
Events      
T = Trace of Precipitation, MM = Missing Value Source: NWS Daily Summary

Daily Weather History Graph

Daily Weather History Graph

Search for Another Location

Airport or City:

Trip Planner

Search our weather history database for the weather conditions in past years. The results will help you decide how hot, cold, wet, or windy it might be!

Date:

Astronomy

Nov. 04, 2013 Rise Set
Actual Time 7:14 AM EST 5:22 PM EST
Civil Twilight 6:44 AM EST 5:52 PM EST
Nautical Twilight 6:11 AM EST 6:26 PM EST
Astronomical Twilight 5:37 AM EST 6:59 PM EST
Moon 8:26 AM EST (11/4) 6:24 PM EST (11/4)
Length of Visible Light 11h 07m
Length of Day
10h 07m
New Moon, 2% of the Moon is Illuminated
Nov 4
New Moon
Nov 10
First Quarter
Nov 17
Full
Nov 25
Last Quarter
Dec 2
New

Hourly Weather History & Observations

Time (EST) Temp. Windchill Dew Point Humidity Pressure Visibility Wind Dir Wind Speed Gust Speed Precip Events Conditions
12:14 AM 32.0 °F 28.7 °F 28.4 °F 87% 30.44 in 10.0 mi SE 3.5 mph - N/A   Clear
12:34 AM 32.0 °F 27.5 °F 28.4 °F 87% 30.45 in 10.0 mi SE 4.6 mph - N/A   Clear
12:54 AM 32.0 °F 26.4 °F 28.4 °F 87% 30.46 in 10.0 mi ESE 5.8 mph - N/A   Clear
1:14 AM 32.0 °F 26.4 °F 26.6 °F 80% 30.46 in 10.0 mi ESE 5.8 mph - N/A   Clear
1:34 AM 32.0 °F 25.6 °F 26.6 °F 80% 30.44 in 10.0 mi ESE 6.9 mph - N/A   Clear
1:54 AM 32.0 °F 26.4 °F 26.6 °F 80% 30.45 in 10.0 mi ESE 5.8 mph - N/A   Clear
2:14 AM 32.0 °F 26.4 °F 26.6 °F 80% 30.44 in 10.0 mi ESE 5.8 mph - N/A   Clear
2:34 AM 32.0 °F 27.5 °F 26.6 °F 80% 30.45 in 10.0 mi SE 4.6 mph - N/A   Clear
2:54 AM 32.0 °F 27.5 °F 24.8 °F 75% 30.45 in 10.0 mi ESE 4.6 mph - N/A   Clear
3:14 AM 32.0 °F 26.4 °F 24.8 °F 75% 30.44 in 10.0 mi ESE 5.8 mph - N/A   Clear
3:34 AM 32.0 °F 27.5 °F 24.8 °F 75% 30.44 in 10.0 mi ESE 4.6 mph - N/A   Clear
3:54 AM 32.0 °F 24.8 °F 26.6 °F 80% 30.43 in 10.0 mi SE 8.1 mph - N/A   Clear
4:14 AM 32.0 °F 23.6 °F 28.4 °F 87% 30.43 in 10.0 mi SE 10.4 mph - N/A   Clear
4:34 AM 33.8 °F 24.3 °F 28.4 °F 81% 30.43 in 10.0 mi SE 13.8 mph - N/A   Clear
4:54 AM 33.8 °F 25.3 °F 28.4 °F 81% 30.44 in 10.0 mi SE 11.5 mph - N/A   Clear
5:14 AM 33.8 °F 25.8 °F 28.4 °F 81% 30.44 in 10.0 mi SE 10.4 mph - N/A   Clear
5:34 AM 33.8 °F 25.3 °F 28.4 °F 81% 30.44 in 10.0 mi SE 11.5 mph - N/A   Clear
5:54 AM 33.8 °F 26.4 °F 28.4 °F 81% 30.44 in 10.0 mi SE 9.2 mph - N/A   Clear
6:14 AM 33.8 °F 26.4 °F 28.4 °F 81% 30.44 in 10.0 mi SSE 9.2 mph - N/A   Clear
6:34 AM 33.8 °F 26.4 °F 30.2 °F 87% 30.44 in 10.0 mi SE 9.2 mph - N/A   Clear
6:54 AM 33.8 °F 27.0 °F 30.2 °F 87% 30.44 in 10.0 mi SE 8.1 mph - N/A   Clear
7:14 AM 33.8 °F 27.7 °F 30.2 °F 87% 30.44 in 10.0 mi SE 6.9 mph - N/A   Clear
7:34 AM 33.8 °F 26.4 °F 30.2 °F 87% 30.44 in 10.0 mi SE 9.2 mph - N/A   Clear
7:54 AM 33.8 °F 25.3 °F 32.0 °F 93% 30.44 in 10.0 mi SE 11.5 mph - N/A   Clear
8:14 AM 33.8 °F 25.8 °F 32.0 °F 93% 30.44 in 10.0 mi SE 10.4 mph - N/A   Clear
8:35 AM 35.6 °F 27.1 °F 32.0 °F 87% 30.44 in 10.0 mi SE 12.7 mph - N/A   Clear
8:54 AM 35.6 °F 26.6 °F 32.0 °F 87% 30.43 in 10.0 mi SE 13.8 mph - N/A   Clear
9:14 AM 35.6 °F 26.6 °F 32.0 °F 87% 30.44 in 10.0 mi SE 13.8 mph 18.4 mph N/A   Clear
9:35 AM 37.4 °F 29.3 °F 32.0 °F 81% 30.44 in 10.0 mi SE 12.7 mph - N/A   Clear
9:54 AM 39.2 °F 32.0 °F 32.0 °F 75% 30.43 in 10.0 mi SSE 11.5 mph - N/A   Clear
10:14 AM 41.0 °F 32.8 °F 30.2 °F 65% 30.43 in 10.0 mi SSE 16.1 mph 19.6 mph N/A   Clear
10:34 AM 41.0 °F 33.1 °F 28.4 °F 61% 30.43 in 10.0 mi SSE 15.0 mph - N/A   Clear
10:54 AM 42.8 °F 35.8 °F 28.4 °F 57% 30.42 in 10.0 mi SSE 13.8 mph - N/A   Clear
11:14 AM 44.6 °F 38.1 °F 26.6 °F 49% 30.43 in 10.0 mi SE 13.8 mph - N/A   Clear
11:34 AM 44.6 °F 37.8 °F 24.8 °F 46% 30.42 in 10.0 mi SE 15.0 mph - N/A   Clear
11:54 AM 46.4 °F 40.1 °F 24.8 °F 43% 30.40 in 10.0 mi SE 15.0 mph - N/A   Clear
12:14 PM 44.6 °F 36.6 °F 23.0 °F 43% 30.39 in 10.0 mi SE 19.6 mph 25.3 mph N/A   Clear
12:34 PM 46.4 °F 39.5 °F 26.6 °F 46% 30.38 in 10.0 mi SE 17.3 mph 21.9 mph N/A   Clear
12:54 PM 44.6 °F 37.4 °F 26.6 °F 49% 30.37 in 10.0 mi SE 16.1 mph - N/A   Clear
1:14 PM 46.4 °F 40.4 °F 24.8 °F 43% 30.36 in 10.0 mi SE 13.8 mph 21.9 mph N/A   Clear
1:34 PM 46.4 °F 40.7 °F 26.6 °F 46% 30.36 in 10.0 mi SSE 12.7 mph 17.3 mph N/A   Clear
1:54 PM 46.4 °F 40.4 °F 23.0 °F 40% 30.36 in 10.0 mi SE 13.8 mph 20.7 mph N/A   Clear
2:14 PM 46.4 °F 39.5 °F 23.0 °F 40% 30.35 in 10.0 mi SE 17.3 mph 21.9 mph N/A   Clear
2:34 PM 46.4 °F 40.4 °F 23.0 °F 40% 30.34 in 10.0 mi SE 13.8 mph 19.6 mph N/A   Clear
2:54 PM 46.4 °F 41.1 °F 23.0 °F 40% 30.33 in 10.0 mi SE 11.5 mph - N/A   Clear
3:14 PM 46.4 °F 40.1 °F 23.0 °F 40% 30.32 in 10.0 mi SE 15.0 mph 20.7 mph N/A   Clear
3:34 PM 48.2 °F - 21.2 °F 34% 30.31 in 10.0 mi SE 13.8 mph - N/A   Clear
3:54 PM 44.6 °F 37.8 °F 21.2 °F 39% 30.31 in 10.0 mi SE 15.0 mph 23.0 mph N/A   Clear
4:14 PM 44.6 °F 38.8 °F 23.0 °F 43% 30.31 in 10.0 mi SE 11.5 mph - N/A   Clear
4:34 PM 44.6 °F 38.1 °F 23.0 °F 43% 30.31 in 10.0 mi SE 13.8 mph 20.7 mph N/A   Clear
4:54 PM 42.8 °F 38.6 °F 26.6 °F 53% 30.31 in 10.0 mi SE 6.9 mph - N/A   Clear
5:14 PM 42.8 °F 38.0 °F 26.6 °F 53% 30.30 in 10.0 mi SE 8.1 mph - N/A   Clear
5:34 PM 42.8 °F 37.0 °F 26.6 °F 53% 30.30 in 10.0 mi SE 10.4 mph - N/A   Clear
5:54 PM 42.8 °F 36.6 °F 26.6 °F 53% 30.29 in 10.0 mi SE 11.5 mph 17.3 mph N/A   Clear
6:14 PM 42.8 °F 36.6 °F 26.6 °F 53% 30.29 in 10.0 mi SE 11.5 mph - N/A   Clear
6:34 PM 42.8 °F 36.2 °F 28.4 °F 57% 30.28 in 10.0 mi SE 12.7 mph - N/A   Clear
6:54 PM 42.8 °F 36.2 °F 28.4 °F 57% 30.29 in 10.0 mi SSE 12.7 mph - N/A   Clear
7:14 PM 42.8 °F 36.2 °F 30.2 °F 61% 30.29 in 10.0 mi SSE 12.7 mph 18.4 mph N/A   Scattered Clouds
7:34 PM 42.8 °F 36.2 °F 30.2 °F 61% 30.29 in 10.0 mi SSE 12.7 mph 17.3 mph N/A   Clear
7:54 PM 42.8 °F 35.8 °F 30.2 °F 61% 30.27 in 10.0 mi SSE 13.8 mph 20.7 mph N/A   Clear
8:14 PM 41.0 °F 34.3 °F 30.2 °F 65% 30.27 in 10.0 mi SSE 11.5 mph - N/A   Clear
8:34 PM 41.0 °F 35.2 °F 30.2 °F 65% 30.28 in 10.0 mi SSE 9.2 mph - N/A   Clear
8:54 PM 42.8 °F 37.5 °F 30.2 °F 61% 30.28 in 10.0 mi SSE 9.2 mph - N/A   Clear
9:14 PM 42.8 °F 37.5 °F 30.2 °F 61% 30.27 in 10.0 mi SSE 9.2 mph - N/A   Clear
9:34 PM 42.8 °F 38.0 °F 30.2 °F 61% 30.27 in 10.0 mi South 8.1 mph - N/A   Clear
9:54 PM 42.8 °F 38.0 °F 30.2 °F 61% 30.27 in 10.0 mi South 8.1 mph - N/A   Mostly Cloudy
10:14 PM 42.8 °F 37.5 °F 30.2 °F 61% 30.27 in 10.0 mi South 9.2 mph - N/A   Overcast
10:34 PM 42.8 °F 37.0 °F 30.2 °F 61% 30.26 in 10.0 mi South 10.4 mph - N/A   Overcast
10:54 PM 42.8 °F 38.0 °F 30.2 °F 61% 30.26 in 10.0 mi South 8.1 mph - N/A   Overcast
11:14 PM 42.8 °F 37.5 °F 32.0 °F 66% 30.25 in 10.0 mi South 9.2 mph - N/A   Overcast
11:34 PM 44.6 °F 39.2 °F 32.0 °F 61% 30.25 in 10.0 mi South 10.4 mph 17.3 mph N/A   Overcast
11:54 PM 44.6 °F 38.8 °F 32.0 °F 61% 30.25 in 10.0 mi South 11.5 mph - N/A   Overcast